Date String (YYYY-MM-DD hh:mm:ss) UTC,Instrument flags,absolute air pressure of the measurement (hPa),sample flow rate (lpm),inlet stack bypass flow (lpm),air temperature of the measurement (°C),ambient temperature measured by the external sensor (°C),aerosol sample conditioner tube jacket temperature (°C),OPC LED temperature (°C),internal box temperature (°C),relative humidity of the measurement (%),span deviation,mass concentration of particles derived from Lorenz-Mie calculation of OPC scattering (μg/m³),mass concentration of particles derived from Lorenz-Mie calculation of OPC scattering (μg/m³),mass concentration of particles derived from Lorenz-Mie calculation of OPC scattering (μg/m³)
DateTimeUTC,F1_M11,P_M11,Q1_M11,Q2_M11,T1_M11,T2_M11,T3_M11,T4_M11,T5_M11,U1_M11,ZSPAN_M11,X2_M11,X0_M11,X1_M11
2024-03-21 14:00:00,SystemResetWarning,0825.9,5.01,000.00,020.0,019.4,000.0,028.6,021.8,18.6,0000.0,0006.24,0013.84,0005.47
2024-03-21 14:01:00,SystemResetWarning,0825.9,5.00,000.00,020.0,019.4,000.0,028.6,021.8,18.6,0000.9,0006.26,0015.02,0005.49
2024-03-21 14:02:00,SystemResetWarning,0825.9,5.00,000.00,020.0,019.4,000.0,028.6,021.8,18.6,0000.4,0006.27,0015.36,0005.50
2024-03-21 14:03:00,SystemResetWarning,0825.9,5.00,000.00,020.0,019.4,000.0,028.6,021.9,18.6,-000.4,0006.29,0015.62,0005.51
2024-03-21 14:04:00,SystemResetWarning,0825.9,5.00,000.00,020.0,019.4,000.0,028.6,021.9,18.6,-000.5,0006.27,0016.65,0005.52
2024-03-21 14:05:00,SystemResetWarning,0825.9,5.00,000.00,020.0,019.4,000.0,028.6,021.9,18.8,-000.1,0006.27,0016.56,0005.52
2024-03-21 14:06:00,SystemResetWarning,0825.9,5.00,000.00,020.0,019.5,000.0,028.6,021.9,20.4,0001.2,0006.17,0016.31,0005.49
2024-03-21 14:07:00,SystemResetWarning,0825.9,5.00,000.00,020.1,019.5,000.0,028.6,021.9,19.2,0002.7,0006.15,0015.75,0005.48
2024-03-21 14:08:00,SystemResetWarning,0825.9,5.00,000.00,020.1,019.5,000.0,028.6,021.9,19.5,0003.7,0006.17,0015.68,0005.48
2024-03-21 14:09:00,SystemResetWarning,0826.0,5.00,000.00,020.1,019.5,000.0,028.6,021.9,19.8,0004.0,0006.19,0015.94,0005.50
2024-03-21 14:10:00,SystemResetWarning,0826.0,5.00,000.00,020.1,019.5,000.0,028.6,021.9,21.3,0004.2,0006.15,0015.30,0005.47
2024-03-21 14:11:00,SystemResetWarning,0825.9,5.00,000.00,020.1,019.5,000.0,028.6,021.9,21.5,0004.0,0006.12,0015.35,0005.41
2024-03-21 14:12:00,SystemResetWarning,0826.0,5.00,000.00,020.1,019.5,000.0,028.6,021.9,20.6,0004.7,0006.08,0014.30,0005.36
2024-03-21 14:13:00,SystemResetWarning,0825.9,5.02,000.00,020.1,019.5,000.0,028.6,021.9,20.0,0004.7,0006.07,0014.30,0005.34
2024-03-21 14:14:00,SystemResetWarning,0825.9,5.00,000.00,020.1,019.5,000.0,028.6,021.9,19.4,0005.2,0006.11,0014.72,0005.36
2024-03-21 14:15:00,SystemResetWarning,0825.9,4.99,000.00,020.1,019.5,000.0,028.6,021.9,19.5,0005.3,0006.13,0013.91,0005.37
2024-03-21 14:16:00,SystemResetWarning,0826.0,4.99,000.00,020.1,019.5,000.0,028.6,021.9,19.8,0005.4,0006.14,0013.31,0005.39
2024-03-21 14:17:00,SystemResetWarning,0826.0,5.00,000.00,020.1,019.6,000.0,028.6,021.9,19.7,0005.2,0006.21,0013.72,0005.43
2024-03-21 14:18:00,SystemResetWarning,0826.0,5.00,000.00,020.1,019.6,000.0,028.6,021.9,19.5,0005.0,0006.24,0013.72,0005.45
2024-03-21 14:19:00,SystemResetWarning,0826.0,5.00,000.00,020.1,019.6,000.0,028.6,021.9,19.6,0004.7,0006.20,0012.99,0005.45
2024-03-21 14:20:00,SystemResetWarning,0826.0,5.00,000.00,020.1,019.6,000.0,028.6,021.9,19.6,0004.4,0006.18,0012.51,0005.45
2024-03-21 14:21:00,SystemResetWarning,0825.9,5.00,000.00,020.1,019.6,000.0,028.6,021.9,19.0,0004.3,0006.25,0012.60,0005.50
2024-03-21 14:22:00,SystemResetWarning,0825.9,5.00,000.00,020.1,019.6,000.0,028.6,022.0,19.0,0004.6,0006.28,0012.83,0005.55
2024-03-21 14:23:00,SystemResetWarning,0825.9,4.99,000.00,020.1,019.6,000.0,028.6,022.0,19.1,0004.6,0006.28,0013.54,0005.56
2024-03-21 14:24:00,SystemResetWarning,0825.9,4.99,000.00,020.2,019.6,000.0,028.6,022.0,19.1,0004.5,0006.28,0013.84,0005.56
2024-03-21 14:25:00,SystemResetWarning,0825.9,4.99,000.00,020.2,019.6,000.0,028.6,022.0,19.3,0004.3,0006.20,0013.24,0005.50
2024-03-21 14:26:00,SystemResetWarning,0825.9,5.01,000.00,020.2,019.6,000.0,028.6,022.0,19.3,0004.5,0006.20,0013.08,0005.47
2024-03-21 14:27:00,SystemResetWarning,0825.9,5.01,000.00,020.2,019.6,000.0,028.6,022.0,19.8,0004.3,0006.20,0013.18,0005.42
2024-03-21 14:28:00,SystemResetWarning,0825.9,5.00,000.00,020.2,019.7,000.0,028.6,022.0,19.7,0004.4,0006.16,0013.70,0005.37
2024-03-21 14:29:00,SystemResetWarning,0825.9,4.99,000.00,020.2,019.7,000.0,028.7,022.0,19.5,0004.1,0006.13,0013.84,0005.32
2024-03-21 14:30:00,SystemResetWarning,0825.9,4.99,000.00,020.2,019.7,000.0,028.7,022.0,19.6,0004.2,0006.10,0014.03,0005.29
2024-03-21 14:31:00,SystemResetWarning,0825.9,5.02,000.00,020.2,019.7,000.0,028.7,022.0,19.9,0004.2,0006.05,0014.85,0005.25
2024-03-21 14:32:00,SystemResetWarning,0825.9,5.00,000.00,020.2,019.7,000.0,028.7,022.0,19.7,0004.2,0005.98,0015.10,0005.22
2024-03-21 14:33:00,SystemResetWarning,0826.0,4.99,000.00,020.2,019.7,000.0,028.7,022.1,20.0,0003.8,0005.98,0015.03,0005.22
2024-03-21 14:34:00,SystemResetWarning,0826.0,5.00,000.00,020.2,019.7,000.0,028.7,022.1,20.2,0003.5,0005.99,0014.47,0005.24
2024-03-21 14:35:00,SystemResetWarning,0826.0,5.01,000.00,020.3,019.7,000.0,028.7,022.1,20.3,0003.3,0005.97,0013.95,0005.26
2024-03-21 14:36:00,SystemResetWarning,0826.0,5.01,000.00,020.3,019.7,000.0,028.7,022.1,20.4,0002.8,0005.98,0013.77,0005.29
2024-03-21 14:37:00,SystemResetWarning,0826.1,5.01,000.00,020.3,019.7,000.0,028.7,022.1,20.3,0002.1,0006.01,0013.73,0005.32
2024-03-21 14:38:00,SystemResetWarning,0826.1,5.00,000.00,020.3,019.7,000.0,028.7,022.1,18.7,0002.3,0005.93,0013.63,0005.27
2024-03-21 14:39:00,SystemResetWarning,0826.0,5.00,000.00,020.3,019.7,000.0,028.7,022.1,18.4,0002.2,0005.85,0012.57,0005.19
2024-03-21 14:40:00,SystemResetWarning,0826.0,4.99,000.00,020.3,019.8,000.0,028.7,022.1,18.1,0002.3,0005.81,0012.39,0005.13
2024-03-21 14:41:00,SystemResetWarning,0826.0,5.00,000.00,020.3,019.8,000.0,028.7,022.1,17.7,0002.8,0005.77,0012.30,0005.08
2024-03-21 14:42:00,SystemResetWarning,0826.0,5.00,000.00,020.3,019.8,000.0,028.7,022.1,17.6,0003.2,0005.73,0012.36,0005.00
2024-03-21 14:43:00,SystemResetWarning,0826.0,5.01,000.00,020.3,019.8,000.0,028.7,022.1,18.2,0003.3,0005.67,0012.92,0004.92
2024-03-21 14:44:00,SystemResetWarning,0826.0,5.01,000.00,020.3,019.8,000.0,028.8,022.1,18.6,0004.6,0005.59,0012.64,0004.84
2024-03-21 14:45:00,SystemResetWarning,0826.0,5.00,000.00,020.3,019.8,000.0,028.8,022.2,18.7,0005.4,0005.54,0012.38,0004.76
2024-03-21 14:46:00,SystemResetWarning,0826.0,4.99,000.00,020.4,019.8,000.0,028.8,022.2,18.5,0005.9,0005.50,0012.32,0004.68
2024-03-21 14:47:00,SystemResetWarning,0826.0,5.00,000.00,020.4,019.8,000.0,028.8,022.2,18.3,0006.2,0005.41,0012.30,0004.60
2024-03-21 14:48:00,SystemResetWarning,0826.0,5.00,000.00,020.4,019.8,000.0,028.8,022.2,17.8,0006.6,0005.26,0012.01,0004.49
2024-03-21 14:49:00,SystemResetWarning,0826.0,4.99,000.00,020.4,019.8,000.0,028.8,022.2,18.1,0006.3,0005.23,0011.83,0004.47
2024-03-21 14:50:00,SystemResetWarning,0826.0,4.99,000.00,020.4,019.8,000.0,028.8,022.2,18.0,0006.2,0005.25,0011.82,0004.50
2024-03-21 14:51:00,SystemResetWarning,0826.0,4.99,000.00,020.4,019.8,000.0,028.8,022.2,18.0,0006.2,0005.21,0011.69,0004.51
2024-03-21 14:52:00,SystemResetWarning,0826.0,5.00,000.00,020.4,019.9,000.0,028.8,022.2,18.2,0005.7,0005.21,0011.65,0004.53
2024-03-21 14:53:00,SystemResetWarning,0826.0,5.00,000.00,020.4,019.9,000.0,028.8,022.2,18.2,0005.2,0005.23,0010.87,0004.56
2024-03-21 14:54:00,SystemResetWarning,0826.0,5.01,000.00,020.4,019.9,000.0,028.8,022.2,18.3,0005.0,0005.24,0009.86,0004.60
2024-03-21 14:55:00,SystemResetWarning,0826.0,5.00,000.00,020.4,019.9,000.0,028.8,022.2,18.6,0004.5,0005.27,0010.04,0004.61
2024-03-21 14:56:00,SystemResetWarning,0826.0,5.00,000.00,020.4,019.9,000.0,028.8,022.3,18.8,0003.9,0005.28,0010.81,0004.63
2024-03-21 14:57:00,SystemResetWarning,0826.0,5.00,000.00,020.5,019.9,000.0,028.9,022.3,17.9,0003.3,0005.28,0010.83,0004.65
2024-03-21 14:58:00,SystemResetWarning,0826.0,5.00,000.00,020.5,019.9,000.0,028.9,022.3,17.9,0002.8,0005.29,0010.73,0004.67
2024-03-21 14:59:00,SystemResetWarning,0826.0,5.00,000.00,020.5,019.9,000.0,028.9,022.3,17.9,0002.7,0005.37,0011.54,0004.75
